SKYNET 5C

Last updated on Sun Oct 06 2024 00:02:38 GMT+0000 (Coordinated Universal Time)

1 33055U 08030A 24279.39416499 -.00000128 00000+0 00000+0 0 9996 2 33055 2.1872 84.1540 0003559 107.6050 306.9198 1.00272793 59743
UTC large
Height (km)
Speed (km/s)
/
Latitude / Longitude
Inclination (degrees)
Orbital Period (minutes)
Azimuth
Elevation
Range (km)
Doppler Factor

Next 0 passes for location: London (51.5072 / 0.1276)

Sorry there are no passes over London.